Regional Weather Roundup
Issued by NWS State College, PA

Home | Current Version | Previous Version | Text Only | Print | Product List | Glossary On
Versions: 1 2 3 4 5 6 7 8 9 10 11 12 13 14 15 16 17 18 19 20 21 22 23 24 25 26 27 28 29 30 31 32 33 34 35 36 37 38 39 40 41 42 43 44 45 46 47 48 49 50
000
ASUS41 KCTP 292310
RWRCTP

REGIONAL WEATHER ROUNDUP
NATIONAL WEATHER SERVICE STATE COLLEGE PA
600 PM EST THU JAN 29 2015

Note: "fair" indicates few or no clouds below 12,000 feet with no
significant weather and/or obstructions to visibility.

* = STATION THAT DOES NOT REPORT PRECIPITATION /E.G. RAIN...SNOW...ETC/
    THUNDER OR FOG.

PAZ002>004-007>009-013>016-020>023-029>032-300000-
WESTERN PENNSYLVANIA

CITY           SKY/WX    TMP DP  RH WIND       PRES   REMARKS
ERIE           LGT RAIN  35  31  85 SW8       29.74S FOG
MEADVILLE      LGT SNOW  34  32  92 S10       29.73R FOG
FRANKLIN*      CLOUDY    34  30  86 S13       29.76S
NEW CASTLE     MIX PCPN  36  36 100 S3        29.79R FOG
BEAVER COUNTY  LGT RAIN  36  36 100 S8        29.77R
BUTLER*        CLOUDY    36  34  93 S8        29.80S
PITTSBURGH INT DRIZZLE   38  36  92 S8        29.79S FOG
PITTSBURGH     CLOUDY    36  32  85 S10       29.79F FOG
INDIANA*       CLOUDY    36  36 100 S7        29.85S FOG
LATROBE        LGT RAIN  39  39 100 SW12      29.84S
WASHINGTON CO* CLOUDY    39  36  87 S8        29.82R
$$

PAZ004>006-010>012-017>019-024>028-033>037-041-042-045-046-049>053-300000-
CENTRAL PENNSYLVANIA

CITY           SKY/WX    TMP DP  RH WIND       PRES   REMARKS
BRADFORD       FRZ RAIN  26  22  84 S9        29.73S FOG
DUBOIS         CLOUDY    29  28  96 SE8       29.77S FOG
CLEARFIELD     LGT SNOW  24  22  91 NE5       29.85S FOG
JOHNSTOWN      FRZ RAIN  28  25  88 S10       29.80F FOG
ALTOONA        LGT SNOW  25  22  88 SW6       29.90F FOG
STATE COLLEGE  CLOUDY    25  21  86 SW8       29.92F
WILLIAMSPORT   FLURRIES  26  19  74 SE12G28   29.98S
SELINSGROVE    LGT SNOW  26  23  88 S9        30.02S FOG
FT INDIANTOWN  LGT SNOW  25  23  93 S7        30.06S VSB 3/4
CAPITAL CITY   LGT SNOW  26  24  92 SE7       30.05F FOG
HARRISBURG     LGTSLEET  26  24  92 SE8       30.05F FOG
YORK           MIX PCPN  27  24  89 SE6       30.05S FOG
$$

PAZ038>040-043-044-047-048-054-055-060>062-067>071-300000-
EASTERN PENNSYLVANIA

CITY           SKY/WX    TMP DP  RH WIND       PRES   REMARKS
SCRANTON       CLOUDY    30   4  33 S8        29.97F
MOUNT POCONO   CLOUDY    22   4  46 SE14      29.95F WCI   9
ALLENTOWN      CLOUDY    30   9  41 SE7       30.06F
QUAKERTOWN*    CLOUDY    30  12  47 SE6       30.07F
READING        CLOUDY    31  10  41 S8        30.06F
LANCASTER      LGT SNOW  26  22  84 S8        30.08R VSB 3/4
COATESVILLE    CLOUDY    30  19  64 S6        30.06F
POTTSTOWN      CLOUDY    31  11  43 S5        30.08F
BLUE BELL      CLOUDY    34  14  44 SE5       30.07F
DOYLESTOWN     CLOUDY    29  13  51 SE5       30.07F
WILLOW GROVE   NOT AVBL
NORTH PHILA    CLOUDY    35  11  36 VRB3      30.12F
PHILADELPHIA   CLOUDY    34  13  41 S8        30.11F
$$


USA.gov is the U.S. government's official web portal to all federal, state and local government web resources and services.